Погода в Каневке

Поиск расширенной информации на нашем сайте:

Полезная информация:

Новости сайта



02.01.2020
Опубликован Долгосрочный прогноз погоды по городам России и ближнего зарубежья на январь 2020 года.
Карты: Прогноз на январь и февраль 2020 года, Сравнение прогнозируемой аномалии приземной температуры воздуха на январь 2020 года по разным моделям.




Погода в Каневке - сегодня

Время (UTC), дата Ветер
(°,м/с) 
Видим.   Явления Облачность Т
(°С)
Тd
(°С)
f(%) Тe
(°С)
Pmin
(гПа)
dP
(гПа)
Po
(мм)
O2
(г/м3)
Тmin Tmax R s Состояние
почвы
03 29.11.20 220 (ЮЗ) 6-8{12}  50000 м    10/10 300 м 
[St]
-2 -4.5 83 -6  1031.2  -1.1  759  309  -3    0.0     
06 29.11.20 220 (ЮЗ) 5-10{13}  50000 м    10/10 300 м 
[St]
-2.1 -4.2 86 -5  1029.9  -1.3  758  308  -3      равномерный
сухой снег
100% 
09 29.11.20 230 (ЮЗ) 5-9{12}  50000 м  {ливн. осадки}  10/10 300 м кучево-дожд. 
[Cb cap]
-2.3 -4.5 85 -6  1030.1  0.2  758  309           
12 29.11.20 230 (ЮЗ) 5-9{13}  50000 м  {ливн. осадки}  10/10 300 м кучево-дожд. 
[Cb cap]
-2.8 -5.1 84 -6  1030.1  758  309           
15 29.11.20 240 (ЮЗ) 5-10{13}  20000 м  слаб. ливневой снег  10/10 300 м кучево-дожд. 
[Cb cap]
-2.9 -4.9 86 -6  1029.7  -0.4  758  309      0.0     
18 29.11.20 230 (ЮЗ) 5-10{14}  20000 м  {ливн. осадки}  10/10 300 м кучево-дожд. 
[Cb cap]
-2.3 -4.5 85 -6  1029  -0.7  757  308    -1.8  0.0     
21 29.11.20 240 (ЮЗ) 5-8{11}  50000 м  в посл. час ливневой снег  10/10 300 м кучево-дожд. 
[Cb cap]
-1.8 -3.6 87 -5  1027.9  -1.1  756  307           
00 30.11.20 240 (ЮЗ) 6-9{12}  20000 м  слаб. ливневой снег  10/10 300 м кучево-дожд. 
[Cb cap]
-1.6 -4 84 -5  1027.4  -0.5  756  307           
03 30.11.20 230 (ЮЗ) 5-8{11}  20000 м  {ливн. осадки}  10/10 300 м кучево-дожд. 
[Cb cap]
-1.7 -4.1 84 -5  1026.4  -1  755  307  -2.4    0.3     
06 30.11.20 230 (ЮЗ) 5-8{13}  50000 м  {ливн. осадки}  10/10 300 м кучево-дожд. 
[Cb cap]
-1.9 -4.7 81 -5  1025.6  -0.7  755  307  -2.4    0.3  равномерный
сухой снег
100% 
09 30.11.20 220 (ЮЗ) 4-7{12}  50000 м    10/10 300 м 
[St]
-1.8 -4.2 84 -5  1025.6  755  307           
12 30.11.20 230 (ЮЗ) 4-6{12}  50000 м    10/10 200 м 
[St]
-1.6 -3 90 -4  1024.2  -1.4  754  306           
15 30.11.20 210 (ЮЗ) 4-6  50000 м    10/10 200 м 
[St]
-1.7 -2.5 94 -4  1022.6  -1.5  753  305           
18 30.11.20 200 (Ю) 4-7{12}  20000 м  слаб. ливневой снег  10/10 200 м кучево-дожд. 
[Cb cap]
-1.1 -1.8 95 -4  1020.9  -1.5  751  304    -0.9  0.0     
21 30.11.20 190 (Ю) 4-7  20000 м  слаб. ливневой снег  9/9 200 м кучево-дожд. 
[Cb cap]
-0.7 -1.7 93 -3  1019.1  -1.8  750  303           
00 01.12.20 200 (Ю) 4-7  20000 м  слаб. ливневой снег  10/10 200 м кучево-дожд. 
[Cb cap]
-0.1 -1.2 92 -3  1017.4  -1.7  749  302           
03 01.12.20 200 (Ю) 4-8{11}  20000 м  {ливн. осадки}  10/10 200 м кучево-дожд. 
[Cb cap]
+0 -0.8 94 -2  1015.7  -1.6  748  301  -1.1    0.2     
06 01.12.20 200 (Ю) 3-5{11}  20000 м  слаб. ливневой снег  10/10 300 м кучево-дожд. 
[Cb cap]
+0 -1.1 92 -2  1014.2  -1.5  746  301  -1.1    0.2  равномерный
сухой снег
100% 
09 01.12.20 200 (Ю) 4-7{10}  50000 м  {ливн. осадки}  9/9 300 м кучево-дожд. 
[Cb cap]
+0.4 -1.5 87 -2  1012.7  -1.5  745  300           
12 01.12.20 230 (ЮЗ) 4-7{10}  26000 м  слаб. ливневой снег  10/10 300 м кучево-дожд. 
[Cb cap]
-0.6 -1.5 94 -3  1012.9  0.2  746  301           
15 01.12.20 220 (ЮЗ) 4-7{10}  50000 м  в посл. час ливневой снег  9/9 300 м кучево-дожд. 
[Cb cap]
-1.2 -2.9 88 -4  1013.8  0.8  746  302         
18 01.12.20 220 (ЮЗ) 4-6{11}  20000 м  {ливн. осадки}  10/8 300 м кучево-дожд., верхняя 
[Cb cap|Cs]
-1.5 -3.5 86 -4  1014.2  0.6  747  303    +0.5     
21 01.12.20 240 (ЮЗ) 2-3  50000 м  {ливн. осадки}  9/9 300 м кучево-дожд. 
[Cb cap]
-1.3 -3.3 86 -2  1015.3  747  303           
00 02.12.20 260 (З) 2-3  50000 м  {ливн. осадки}  10/10 300 м кучево-дожд. 
[Cb cap]
-1.2 -3.2 86 -2  1017  1.6  749  303           
03 02.12.20 300 (СЗ) 2-3  50000 м  {ливн. осадки}  10/10 300 м кучево-дожд. 
[Cb cap]
-1.6 -3.3 88 -3  1019  1.8  750  304  -1.7    0.0     
Время (UTC), дата Ветер
(°,м/с) 
Видим.   Явления Облачность Т
(°С)
Тd
(°С)
f(%) Тe
(°С)
Pmin
(гПа)
dP
(гПа)
Po
(мм)
O2
(г/м3)
Тmin Tmax R s Состояние
почвы

Для получения пояснительной информации подведите курсор к названию столбца.

ПОГОДА в Каневке - архив

Всё, что Вы хотите узнать о погоде в Каневке - удобно и подробно!

Выберите нужную дату (начиная с 1 января 2019* года) и нажмите кнопку "Найти".
Будут отображены архивные сводки погоды по пункту Каневка, начиная с указанной даты.


Отображать данные в формате CSV (для использования в таблицах Excel)


Внимание! Наш архив погоды предназначен исключительно для личного некоммерческого использования в познавательных целях. Если Вам необходимы официальные справки о состоянии погоды (для производственных, юридических, коммерческих и т.п. целей), обращайтесь в органы Росгидромета.

*Примечание: данная дата относится к архиву по метеостанциям СССР (Россия, СНГ, Балтия).
Архив по метеостанциям Зарубежной Европы и Азии (кроме Китая) хранится 10 дней, по другим регионам земного шара (Китай, Африка, Америка, Австралия, Океания) - 1 день.

Каневка - район местоположения метеостанции


Название, широта, долгота, высота метеостанции:
Каневка 67.1°ш. 39.7°д. 149 м над ур. моря [Российская Федерация]

Дополнительная информация

В oтличие oт бoльшинства пoгoдных сайтoв мы публикуем пoдрoбную метеoинфoрмацию в детальнoм прoфессиoнальнoм фoрмате.

Характеристики температуры и влажнoсти вoздуха измеряются на высoте 2 м в тени вдали oт зданий и деревьев.
Скoрoсть ветра измеряется на высoте 10 м (на урoвне рoста челoвека скoрoсть ветра ниже в 1.5-2 раза). Если метеoстанция нахoдится в гoрoде или в лесу, тo скoрoсть ветра занижена на 2-4 м/с пo сравнению с oткрытым местoм. Скoрoсть ветра над акватoриями крупных рек и oзёр, а также на вершинах хoлмoв на 2-5 м/с выше, чем в oбычных услoвиях.
Атмoсфернoе давление в разных тoчках местнoсти мoжет значительнo oтличаться oт давления на метеoстанции, в зависимoсти oт услoвий рельефа (при пoдъёме на 10 м давление пoнижается примернo на 1 мм рт.ст.).